When you browse on this site, cookies collect data to enhance your experience and personalize the content and advertising you see.
Visit our Privacy Policy to learn more. By continuing to use the site, you agree to this use of cookies and data.
  • In Hungary
  • List of Countries
  • For 7 days
  • Water Temperature
  • Weather Map
  • News
  • Weather Widgets
  • user-avatar
    Login

    Hourly Weather Pajeczak

    Today, 29 March, Sunday

    Time Temperature Precipitation Wind Pressure Humidity
    00:00 +8°C° 0 mm 2 mps 749 mmHg 66%
    01:00 +7°C° 0 mm 2 mps 748 mmHg 70%
    02:00 +7°C° 0 mm 3 mps 748 mmHg 75%
    03:00 +5°C° 0 mm 3 mps 748 mmHg 80%
    04:00 +4°C° 0 mm 4 mps 748 mmHg 85%
    05:00 +4°C° 0.1 mm 4 mps 748 mmHg 82%
    06:00 +3°C° 0.1 mm 5 mps 748 mmHg 79%
    07:00 +3°C° 0.1 mm 5 mps 748 mmHg 76%
    08:00 +3°C° 0.3 mm 5 mps 749 mmHg 78%
    09:00 +3°C° 0.3 mm 5 mps 749 mmHg 81%
    10:00 +4°C° 0.3 mm 4 mps 749 mmHg 83%
    11:00 +3°C° 0 mm 5 mps 749 mmHg 83%
    12:00 +3°C° 0 mm 5 mps 750 mmHg 83%
    13:00 +3°C° 0 mm 6 mps 750 mmHg 84%
    14:00 +2°C° 0 mm 6 mps 750 mmHg 86%
    15:00 +1°C° 0 mm 6 mps 750 mmHg 89%
    16:00 0°C° 0 mm 7 mps 751 mmHg 91%
    17:00 -1°C° 0.1 mm 7 mps 752 mmHg 89%
    18:00 -1°C° 0.1 mm 7 mps 752 mmHg 86%
    19:00 -2°C° 0.1 mm 7 mps 753 mmHg 84%
    20:00 -2°C° 0 mm 7 mps 754 mmHg 79%
    21:00 -3°C° 0 mm 7 mps 754 mmHg 73%
    22:00 -4°C° 0 mm 6 mps 755 mmHg 67%
    23:00 -4°C° 0 mm 6 mps 755 mmHg 68%

    Tomorrow, 30 March, Monday

    Time Temperature Precipitation Wind Pressure Humidity
    00:00 -5°C° 0 mm 5 mps 755 mmHg 69%
    01:00 -5°C° 0 mm 5 mps 756 mmHg 71%
    02:00 -5°C° 0 mm 5 mps 756 mmHg 70%
    03:00 -5°C° 0 mm 5 mps 756 mmHg 70%
    04:00 -5°C° 0 mm 5 mps 756 mmHg 69%
    05:00 -5°C° 0 mm 5 mps 756 mmHg 66%
    06:00 -5°C° 0 mm 5 mps 756 mmHg 63%
    07:00 -3°C° 0 mm 4 mps 756 mmHg 60%
    08:00 -2°C° 0 mm 4 mps 756 mmHg 54%
    09:00 -1°C° 0 mm 4 mps 756 mmHg 48%
    10:00 0°C° 0 mm 4 mps 756 mmHg 42%
    11:00 +1°C° 0 mm 4 mps 756 mmHg 40%
    12:00 +3°C° 0 mm 4 mps 756 mmHg 39%
    13:00 +2°C° 0 mm 5 mps 756 mmHg 37%
    14:00 +3°C° 0 mm 4 mps 755 mmHg 38%
    15:00 +3°C° 0 mm 4 mps 755 mmHg 38%
    16:00 +3°C° 0 mm 3 mps 755 mmHg 38%
    17:00 +2°C° 0 mm 3 mps 755 mmHg 45%
    18:00 +2°C° 0 mm 2 mps 755 mmHg 51%
    19:00 -1°C° 0 mm 2 mps 755 mmHg 58%
    20:00 -1°C° 0 mm 2 mps 756 mmHg 61%
    21:00 -1°C° 0 mm 2 mps 756 mmHg 63%
    22:00 +1°C° 0 mm 1 mps 756 mmHg 66%
    23:00 +1°C° 0 mm 1 mps 756 mmHg 67%

    Day after tomorrow, 31 March, Tuesday

    Time Temperature Precipitation Wind Pressure Humidity
    00:00 -2°C° 0 mm 2 mps 756 mmHg 68%
    01:00 -2°C° 0 mm 2 mps 756 mmHg 69%
    02:00 -2°C° 0 mm 2 mps 757 mmHg 70%
    03:00 -2°C° 0 mm 2 mps 757 mmHg 72%
    04:00 -3°C° 0 mm 2 mps 757 mmHg 74%
    05:00 -2°C° 0 mm 2 mps 757 mmHg 73%
    06:00 -2°C° 0 mm 3 mps 758 mmHg 73%
    07:00 -2°C° 0 mm 3 mps 758 mmHg 73%
    08:00 0°C° 0.1 mm 3 mps 758 mmHg 67%
    09:00 +1°C° 0.1 mm 3 mps 758 mmHg 61%
    10:00 +2°C° 0.1 mm 3 mps 758 mmHg 55%
    11:00 +3°C° 0.2 mm 3 mps 758 mmHg 52%
    12:00 +3°C° 0.2 mm 3 mps 758 mmHg 48%
    13:00 +4°C° 0.2 mm 3 mps 758 mmHg 45%
    14:00 +4°C° 0 mm 3 mps 758 mmHg 43%
    15:00 +4°C° 0 mm 3 mps 757 mmHg 41%
    16:00 +4°C° 0 mm 3 mps 757 mmHg 39%
    17:00 +2°C° 0 mm 3 mps 757 mmHg 44%
    18:00 +1°C° 0 mm 2 mps 757 mmHg 50%
    19:00 -1°C° 0 mm 2 mps 757 mmHg 56%
    20:00 +1°C° 0 mm 1 mps 757 mmHg 58%
    21:00 0°C° 0 mm 1 mps 757 mmHg 59%
    22:00 0°C° 0 mm 1 mps 757 mmHg 61%
    23:00 0°C° 0 mm 1 mps 757 mmHg 62%

    1 April, Wednesday

    Time Temperature Precipitation Wind Pressure Humidity
    00:00 0°C° 0 mm 1 mps 757 mmHg 63%
    01:00 -3°C° 0 mm 2 mps 756 mmHg 63%
    02:00 -3°C° 0 mm 2 mps 756 mmHg 64%
    03:00 -3°C° 0 mm 2 mps 755 mmHg 64%
    04:00 -3°C° 0 mm 2 mps 755 mmHg 64%
    05:00 -2°C° 0 mm 3 mps 754 mmHg 61%
    06:00 -2°C° 0 mm 3 mps 754 mmHg 58%
    07:00 -2°C° 0 mm 4 mps 754 mmHg 54%
    08:00 0°C° 0 mm 4 mps 753 mmHg 50%
    09:00 +1°C° 0 mm 5 mps 753 mmHg 46%
    10:00 +3°C° 0 mm 5 mps 752 mmHg 42%
    11:00 +5°C° 0 mm 5 mps 752 mmHg 42%
    12:00 +5°C° 0 mm 5 mps 751 mmHg 43%
    13:00 +6°C° 0 mm 5 mps 751 mmHg 44%
    14:00 +6°C° 0 mm 5 mps 751 mmHg 48%
    15:00 +6°C° 0 mm 5 mps 750 mmHg 52%
    16:00 +6°C° 0 mm 5 mps 749 mmHg 57%
    17:00 +5°C° 0 mm 4 mps 749 mmHg 65%
    18:00 +3°C° 0 mm 4 mps 749 mmHg 72%
    19:00 +2°C° 0 mm 3 mps 749 mmHg 80%
    20:00 +2°C° 0 mm 3 mps 749 mmHg 83%
    21:00 +1°C° 0 mm 4 mps 749 mmHg 86%
    22:00 +1°C° 0 mm 4 mps 749 mmHg 89%
    23:00 +1°C° 0.1 mm 4 mps 749 mmHg 89%

    2 April, Thursday

    Time Temperature Precipitation Wind Pressure Humidity
    00:00 +1°C° 0.1 mm 5 mps 748 mmHg 89%
    01:00 +1°C° 0.1 mm 5 mps 748 mmHg 90%
    02:00 +1°C° 0 mm 5 mps 748 mmHg 90%
    03:00 +1°C° 0 mm 5 mps 748 mmHg 89%
    04:00 +1°C° 0 mm 5 mps 747 mmHg 89%
    05:00 +2°C° 0 mm 5 mps 747 mmHg 89%
    06:00 +2°C° 0 mm 5 mps 748 mmHg 88%
    07:00 +2°C° 0 mm 5 mps 748 mmHg 88%
    08:00 +2°C° 0 mm 5 mps 748 mmHg 86%
    09:00 +2°C° 0 mm 5 mps 748 mmHg 84%
    10:00 +3°C° 0 mm 5 mps 747 mmHg 83%
    11:00 +3°C° 0 mm 5 mps 748 mmHg 80%
    12:00 +5°C° 0 mm 5 mps 748 mmHg 78%
    13:00 +4°C° 0 mm 6 mps 748 mmHg 76%
    14:00 +4°C° 0.1 mm 6 mps 748 mmHg 80%
    15:00 +3°C° 0.1 mm 6 mps 747 mmHg 84%
    16:00 +3°C° 0.1 mm 5 mps 747 mmHg 88%
    17:00 +3°C° 0 mm 5 mps 747 mmHg 87%
    18:00 +3°C° 0 mm 5 mps 747 mmHg 87%
    19:00 +4°C° 0 mm 4 mps 747 mmHg 86%
    20:00 +4°C° 0 mm 4 mps 747 mmHg 87%
    21:00 +4°C° 0 mm 4 mps 748 mmHg 87%
    22:00 +4°C° 0 mm 4 mps 748 mmHg 87%
    23:00 +3°C° 0 mm 4 mps 748 mmHg 88%

    3 April, Friday

    Time Temperature Precipitation Wind Pressure Humidity
    00:00 +3°C° 0 mm 4 mps 747 mmHg 89%
    01:00 +1°C° 0 mm 4 mps 747 mmHg 90%
    02:00 +1°C° 0 mm 4 mps 747 mmHg 91%
    03:00 0°C° 0 mm 4 mps 747 mmHg 91%
    04:00 0°C° 0 mm 4 mps 746 mmHg 91%
    05:00 0°C° 0 mm 4 mps 746 mmHg 87%
    06:00 +1°C° 0 mm 5 mps 746 mmHg 84%
    07:00 +2°C° 0 mm 5 mps 746 mmHg 80%
    08:00 +4°C° 0 mm 6 mps 746 mmHg 73%
    09:00 +5°C° 0 mm 6 mps 745 mmHg 65%
    10:00 +8°C° 0 mm 7 mps 745 mmHg 58%
    11:00 +9°C° 0 mm 7 mps 745 mmHg 55%
    12:00 +10°C° 0 mm 7 mps 744 mmHg 53%
    13:00 +10°C° 0 mm 8 mps 744 mmHg 50%
    14:00 +10°C° 0 mm 7 mps 744 mmHg 52%
    15:00 +9°C° 0 mm 7 mps 744 mmHg 54%
    16:00 +9°C° 0 mm 7 mps 744 mmHg 56%
    17:00 +8°C° 0 mm 6 mps 744 mmHg 61%
    18:00 +7°C° 0 mm 5 mps 744 mmHg 67%
    19:00 +6°C° 0 mm 4 mps 745 mmHg 72%
    20:00 +5°C° 0 mm 4 mps 745 mmHg 75%
    21:00 +4°C° 0 mm 3 mps 746 mmHg 78%
    22:00 +4°C° 0 mm 3 mps 746 mmHg 82%
    23:00 +3°C° 0 mm 3 mps 747 mmHg 83%
    Show more